CYHZ

Halifax / Stanfield International Airport

Code ICAO CYHZ
Code IATA YHZ
Nom Halifax / Stanfield International Airport
Emplacement Halifax, Nova Scotia, CA
Élévation 477 pieds / 145.4 mètres
Latitude 44.88079834
Longitude -63.50859833
METAR CYHZ 240500Z 20005KT 15SM FEW041 BKN088 M01/M03 A2973 RMK SC2AC3 SLP078
Informations extras Afficher cartes et CFS
Afficher NOTAMS
Piste Longueur Largeur Surface Élévation
05 10500 ft 200 ft ASP 449 ft
14 7700 ft 200 ft ASP 435 ft
23 10500 ft 200 ft ASP 443 ft
32 7700 ft 200 ft ASP 476 ft